sat.trackr.live / text

‹ back to catalog

STARLINK-5270

NORAD 55299 · 2023-010AG

PAYLOAD ACTIVE UNKNOWN

§ Identity

Operator
Country
US
Launch date
2023-01-19
Launch site
AFWTR
Launch vehicle
Mass (kg)
RCS (m²)

Purposes: comms

External: N2YO · Heavens-Above · Gunter

§ Orbital elements

Epoch: 2026-09-20T23:15:32.556384Z

Period
96.11 min
Inclination
69.9980°
Eccentricity
0.0003656
Mean motion
14.98329320 rev/d
Perigee alt
569.5 km
Apogee alt
574.6 km
Semi-major
6,950.2 km
B*
-2.2131e-4
RAAN
251.9428°
Arg perigee
266.9553°
Mean anomaly
93.1187°
Rev number
20,340

§ Raw data

STARLINK-52701 55299U 23010AG  26263.96912681 -.00002733  00000+0 -22131-3 0  99952 55299  69.9980 251.9428 0003656 266.9553  93.1187 14.98329320203409

JSON: /api/v1/satellites/55299 · /tle

For live sub-satellite position, see the globe view (requires WebGL).

§ Visibility from observer

Set your observer location to see the next 7 days of passes ≥ 10°. The values pass through the URL so the page stays shareable.

No JS? Fill the form by hand. The geolocation button needs JavaScript.